QTR105 LEPA-LEMG

Flight info

Callsign QTR105
Flight time 1h 24m
Altitude 37000
Route BAVER M603 ALT N851 UNTOS/N0453F360 N865 VIBAS
Aircraft A320/M-SDE3FGHIRWY/LB1

Departure

Time 2026-05-06 13:59
Airport Palma de Mallorca Airport (LEPA)

Arrival

Time 2026-05-06 15:24
Airport Málaga-Costa del Sol Airport (LEMG)
Time Latitude Longitude Altitude Speed Heading
2026-05-06 13:19 39.54972 2.73397 36 ft 0 kts 164°
2026-05-06 13:48 39.54992 2.73390 36 ft 4 kts 164°
2026-05-06 13:48 39.55016 2.73379 36 ft 4 kts 139°
2026-05-06 13:49 39.55029 2.73352 35 ft 4 kts 93°
2026-05-06 13:49 39.55029 2.73343 36 ft 0 kts 88°
2026-05-06 13:53 39.55030 2.73353 36 ft 1 kts 78°
2026-05-06 13:53 39.55038 2.73354 33 ft 3 kts 11°
2026-05-06 13:53 39.55071 2.73380 34 ft 7 kts 48°
2026-05-06 13:53 39.55101 2.73441 36 ft 9 kts 58°
2026-05-06 13:54 39.55140 2.73524 35 ft 12 kts 58°
2026-05-06 13:54 39.55177 2.73612 36 ft 11 kts 85°
2026-05-06 13:54 39.55182 2.73712 35 ft 12 kts 89°
2026-05-06 13:54 39.55185 2.73817 36 ft 13 kts 37°
2026-05-06 13:55 39.55273 2.73773 34 ft 15 kts 328°
2026-05-06 13:55 39.55370 2.73695 36 ft 18 kts 328°
2026-05-06 13:55 39.55488 2.73602 30 ft 22 kts 328°
2026-05-06 13:55 39.55622 2.73498 27 ft 16 kts 333°
2026-05-06 13:56 39.55672 2.73544 27 ft 8 kts 56°
2026-05-06 13:56 39.55709 2.73615 26 ft 12 kts 57°
2026-05-06 13:56 39.55759 2.73718 29 ft 15 kts 58°
2026-05-06 13:56 39.55820 2.73844 25 ft 18 kts 58°
2026-05-06 13:57 39.55891 2.73996 24 ft 21 kts 59°
2026-05-06 13:57 39.55974 2.74174 20 ft 25 kts 59°
2026-05-06 13:57 39.56102 2.74325 17 ft 27 kts 27°
2026-05-06 13:57 39.56125 2.74340 17 ft 0 kts 25°
2026-05-06 13:58 39.56142 2.74350 18 ft 11 kts 25°
2026-05-06 13:58 39.56230 2.74278 17 ft 21 kts 270°
2026-05-06 13:58 39.56159 2.74110 20 ft 22 kts 237°
2026-05-06 13:58 39.56047 2.73878 22 ft 57 kts 238°
2026-05-06 13:59 39.55718 2.73191 27 ft 119 kts 238°
2026-05-06 13:59 39.55197 2.72093 34 ft 164 kts 237°
2026-05-06 13:59 39.54617 2.70817 623 ft 160 kts 239°
2026-05-06 13:59 39.54034 2.69589 1243 ft 162 kts 235°
2026-05-06 14:00 39.53379 2.68311 1562 ft 181 kts 234°
2026-05-06 14:00 39.52635 2.66868 1838 ft 204 kts 236°
2026-05-06 14:00 39.51803 2.65256 2224 ft 223 kts 235°
2026-05-06 14:00 39.50937 2.63578 3022 ft 225 kts 236°
2026-05-06 14:01 39.50069 2.61889 3892 ft 227 kts 236°
2026-05-06 14:01 39.49197 2.60200 4725 ft 226 kts 237°
2026-05-06 14:01 39.48319 2.58486 5509 ft 229 kts 237°
2026-05-06 14:01 39.47445 2.56773 6288 ft 232 kts 238°
2026-05-06 14:02 39.46544 2.54999 7107 ft 233 kts 238°
2026-05-06 14:02 39.45662 2.53265 7914 ft 234 kts 237°
2026-05-06 14:02 39.44748 2.51459 8472 ft 250 kts 237°
2026-05-06 14:02 39.43760 2.49479 8831 ft 273 kts 237°
2026-05-06 14:03 39.42714 2.47380 9494 ft 281 kts 237°
2026-05-06 14:03 39.41645 2.45234 10207 ft 289 kts 237°
2026-05-06 14:03 39.40508 2.42961 10458 ft 312 kts 237°
2026-05-06 14:03 39.39285 2.40524 10642 ft 334 kts 237°
2026-05-06 14:04 39.37997 2.37962 11150 ft 344 kts 237°
2026-05-06 14:04 39.36685 2.35361 11849 ft 346 kts 237°
2026-05-06 14:04 39.35368 2.32750 12595 ft 347 kts 237°
2026-05-06 14:04 39.34045 2.30126 13295 ft 349 kts 237°
2026-05-06 14:05 39.32740 2.27535 13988 ft 350 kts 237°
2026-05-06 14:05 39.31407 2.24887 14649 ft 352 kts 237°
2026-05-06 14:05 39.30067 2.22229 15263 ft 354 kts 237°
2026-05-06 14:05 39.28718 2.19566 15863 ft 356 kts 237°
2026-05-06 14:06 39.27359 2.16884 16460 ft 358 kts 237°
2026-05-06 14:06 39.25994 2.14193 17043 ft 360 kts 237°
2026-05-06 14:06 39.24615 2.11478 17613 ft 362 kts 237°
2026-05-06 14:06 39.23231 2.08754 18189 ft 364 kts 236°
2026-05-06 14:07 39.21839 2.06013 18749 ft 367 kts 237°
2026-05-06 14:07 39.20437 2.03253 19313 ft 369 kts 236°
2026-05-06 14:07 39.19020 2.00466 19869 ft 372 kts 237°
2026-05-06 14:07 39.17597 1.97667 20408 ft 374 kts 237°
2026-05-06 14:08 39.16662 1.95799 20748 ft 375 kts 239°
2026-05-06 14:08 39.15176 1.91708 21397 ft 380 kts 250°
2026-05-06 14:08 39.14681 1.89540 21712 ft 381 kts 253°
2026-05-06 14:08 39.13985 1.86228 22159 ft 383 kts 253°
2026-05-06 14:09 39.13279 1.82907 22602 ft 386 kts 253°
2026-05-06 14:09 39.12563 1.79561 23050 ft 388 kts 253°
2026-05-06 14:09 39.11842 1.76201 23485 ft 390 kts 253°
2026-05-06 14:09 39.11115 1.72834 23911 ft 391 kts 253°
2026-05-06 14:10 39.10384 1.69447 24320 ft 393 kts 253°
2026-05-06 14:10 39.09654 1.66047 24706 ft 395 kts 253°
2026-05-06 14:10 39.08931 1.62679 25099 ft 396 kts 253°
2026-05-06 14:10 39.08186 1.59212 25484 ft 398 kts 253°
2026-05-06 14:11 39.07455 1.55817 25883 ft 399 kts 253°
2026-05-06 14:11 39.06711 1.52375 26274 ft 400 kts 253°
2026-05-06 14:11 39.05960 1.48914 26648 ft 402 kts 253°
2026-05-06 14:11 39.05204 1.45442 27025 ft 404 kts 253°
2026-05-06 14:12 39.04446 1.41950 27430 ft 405 kts 253°
2026-05-06 14:12 39.03688 1.38459 27868 ft 404 kts 253°
2026-05-06 14:12 39.02933 1.34987 28433 ft 401 kts 253°
2026-05-06 14:12 39.02183 1.31543 28973 ft 398 kts 253°
2026-05-06 14:13 39.01437 1.28125 29497 ft 396 kts 253°
2026-05-06 14:13 39.00693 1.24731 30028 ft 393 kts 253°
2026-05-06 14:13 38.99952 1.21364 30534 ft 390 kts 253°
2026-05-06 14:13 38.99214 1.18014 30995 ft 389 kts 253°
2026-05-06 14:14 38.98487 1.14718 31451 ft 387 kts 253°
2026-05-06 14:14 38.97744 1.11347 31908 ft 386 kts 253°
2026-05-06 14:14 38.97013 1.08045 32347 ft 384 kts 253°
2026-05-06 14:14 38.96291 1.04783 32763 ft 383 kts 253°
2026-05-06 14:15 38.95564 1.01491 33176 ft 382 kts 253°
2026-05-06 14:15 38.94841 0.98213 33597 ft 381 kts 253°
2026-05-06 14:15 38.94118 0.94949 34042 ft 379 kts 253°
2026-05-06 14:15 38.93396 0.91700 34451 ft 378 kts 253°
2026-05-06 14:16 38.92710 0.88616 34791 ft 377 kts 253°
2026-05-06 14:16 38.91990 0.85382 35114 ft 377 kts 253°
2026-05-06 14:16 38.91270 0.82144 35419 ft 377 kts 253°
2026-05-06 14:16 38.90545 0.78902 35728 ft 377 kts 253°
2026-05-06 14:17 38.89819 0.75668 36027 ft 377 kts 253°
2026-05-06 14:17 38.89090 0.72431 36299 ft 378 kts 253°
2026-05-06 14:17 38.88360 0.69194 36543 ft 378 kts 252°
2026-05-06 14:17 38.87515 0.66003 36808 ft 377 kts 248°
2026-05-06 14:18 38.86533 0.62881 36931 ft 377 kts 248°
2026-05-06 14:18 38.85547 0.59731 36954 ft 381 kts 248°
2026-05-06 14:18 38.83569 0.53407 36952 ft 382 kts 248°
2026-05-06 14:19 38.81412 0.47239 36952 ft 382 kts 239°
2026-05-06 14:19 38.78487 0.41548 36952 ft 382 kts 238°
2026-05-06 14:20 38.75547 0.35871 36951 ft 382 kts 238°
2026-05-06 14:20 38.72608 0.30189 36953 ft 382 kts 238°
2026-05-06 14:21 38.69666 0.24516 36956 ft 383 kts 238°
2026-05-06 14:21 38.66720 0.18840 36958 ft 383 kts 238°
2026-05-06 14:22 38.63763 0.13169 36961 ft 383 kts 237°
2026-05-06 14:22 38.60806 0.07505 36964 ft 383 kts 237°
2026-05-06 14:23 38.57873 0.01871 36964 ft 383 kts 238°
2026-05-06 14:23 38.54923 -0.03785 36966 ft 382 kts 238°
2026-05-06 14:24 38.51965 -0.09418 36964 ft 381 kts 237°
2026-05-06 14:24 38.49012 -0.15038 36966 ft 381 kts 238°
2026-05-06 14:25 38.46053 -0.20666 36963 ft 381 kts 238°
2026-05-06 14:25 38.43101 -0.26280 36964 ft 381 kts 238°
2026-05-06 14:26 38.40145 -0.31901 36965 ft 381 kts 237°
2026-05-06 14:26 38.37186 -0.37497 36963 ft 381 kts 237°
2026-05-06 14:27 38.34231 -0.43056 36962 ft 381 kts 237°
2026-05-06 14:27 38.31260 -0.48644 36959 ft 381 kts 237°
2026-05-06 14:28 38.28294 -0.54230 36956 ft 381 kts 237°
2026-05-06 14:28 38.25715 -0.60086 36951 ft 379 kts 246°
2026-05-06 14:29 38.23525 -0.66194 36949 ft 380 kts 245°
2026-05-06 14:29 38.21327 -0.72289 36950 ft 380 kts 245°
2026-05-06 14:30 38.19118 -0.78389 36951 ft 380 kts 245°
2026-05-06 14:30 38.16905 -0.84492 36954 ft 380 kts 245°
2026-05-06 14:31 38.14701 -0.90553 36953 ft 380 kts 245°
2026-05-06 14:31 38.12485 -0.96641 36951 ft 380 kts 245°
2026-05-06 14:32 38.10267 -1.02730 36946 ft 380 kts 245°
2026-05-06 14:32 38.08045 -1.08814 36944 ft 380 kts 245°
2026-05-06 14:33 38.05822 -1.14893 36943 ft 380 kts 245°
2026-05-06 14:33 38.03596 -1.20970 36943 ft 380 kts 245°
2026-05-06 14:34 38.01378 -1.27008 36942 ft 380 kts 245°
2026-05-06 14:34 37.99146 -1.33072 36944 ft 379 kts 245°
2026-05-06 14:35 37.96904 -1.39130 36945 ft 379 kts 245°
2026-05-06 14:35 37.94672 -1.45175 36945 ft 378 kts 245°
2026-05-06 14:36 37.92439 -1.51206 36946 ft 378 kts 245°
2026-05-06 14:36 37.90202 -1.57231 36946 ft 378 kts 245°
2026-05-06 14:37 37.87963 -1.63238 36942 ft 377 kts 245°
2026-05-06 14:37 37.85742 -1.69211 36939 ft 377 kts 245°
2026-05-06 14:38 37.83502 -1.75214 36936 ft 377 kts 245°
2026-05-06 14:38 37.81255 -1.81213 36936 ft 377 kts 245°
2026-05-06 14:39 37.79004 -1.87209 36935 ft 377 kts 245°
2026-05-06 14:39 37.76757 -1.93205 36931 ft 378 kts 245°
2026-05-06 14:40 37.74500 -1.99204 36929 ft 378 kts 245°
2026-05-06 14:40 37.72235 -2.05195 36930 ft 378 kts 245°
2026-05-06 14:41 37.69973 -2.11185 36930 ft 378 kts 244°
2026-05-06 14:41 37.67710 -2.17169 36929 ft 377 kts 245°
2026-05-06 14:42 37.65443 -2.23137 36925 ft 378 kts 244°
2026-05-06 14:42 37.63179 -2.29075 36922 ft 377 kts 244°
2026-05-06 14:43 37.60907 -2.35037 36923 ft 377 kts 244°
2026-05-06 14:43 37.58630 -2.41008 36930 ft 377 kts 244°
2026-05-06 14:44 37.57512 -2.43939 36931 ft 377 kts 244°
2026-05-06 14:45 37.55782 -2.48469 36932 ft 377 kts 244°
2026-05-06 14:46 37.54977 -2.50570 36933 ft 377 kts 244°
2026-05-06 14:47 37.52698 -2.56524 36936 ft 377 kts 244°
2026-05-06 14:47 37.52470 -2.57120 36935 ft 377 kts 244°
2026-05-06 14:48 37.50379 -2.62564 36937 ft 377 kts 244°
2026-05-06 14:48 37.48104 -2.68469 36936 ft 377 kts 244°
2026-05-06 14:49 37.45814 -2.74414 36932 ft 377 kts 244°
2026-05-06 14:49 37.43529 -2.80346 36931 ft 377 kts 244°
2026-05-06 14:50 37.41234 -2.86270 36929 ft 377 kts 244°
2026-05-06 14:50 37.38938 -2.92195 36932 ft 377 kts 244°
2026-05-06 14:51 37.36636 -2.98118 36935 ft 377 kts 244°
2026-05-06 14:51 37.34336 -3.04045 36935 ft 377 kts 244°
2026-05-06 14:52 37.32020 -3.09970 36935 ft 378 kts 244°
2026-05-06 14:52 37.29701 -3.15903 36936 ft 378 kts 244°
2026-05-06 14:53 37.27421 -3.21808 36937 ft 378 kts 248°
2026-05-06 14:53 37.26500 -3.28287 36941 ft 383 kts 269°
2026-05-06 14:53 37.26900 -3.31612 36932 ft 389 kts 280°
2026-05-06 14:54 37.27850 -3.34846 36209 ft 404 kts 290°
2026-05-06 14:54 37.29128 -3.38023 35414 ft 409 kts 291°
2026-05-06 14:54 37.30435 -3.41222 34634 ft 413 kts 291°
2026-05-06 14:54 37.31754 -3.44453 33815 ft 418 kts 291°
2026-05-06 14:55 37.33079 -3.47722 32872 ft 424 kts 291°
2026-05-06 14:55 37.34420 -3.51059 31904 ft 429 kts 291°
2026-05-06 14:55 37.35502 -3.54478 30970 ft 423 kts 279°
2026-05-06 14:55 37.35793 -3.58081 29931 ft 409 kts 264°
2026-05-06 14:56 37.35260 -3.61537 28895 ft 401 kts 249°
2026-05-06 14:56 37.33949 -3.64636 28285 ft 407 kts 234°
2026-05-06 14:56 37.31981 -3.67254 27950 ft 419 kts 221°
2026-05-06 14:56 37.29479 -3.69193 27448 ft 427 kts 210°
2026-05-06 14:57 37.26820 -3.70878 26935 ft 429 kts 210°
2026-05-06 14:57 37.24143 -3.72529 26415 ft 428 kts 209°
2026-05-06 14:57 37.21469 -3.74160 25928 ft 426 kts 209°
2026-05-06 14:57 37.18807 -3.75781 25425 ft 424 kts 209°
2026-05-06 14:58 37.16160 -3.77399 24928 ft 422 kts 209°
2026-05-06 14:58 37.13529 -3.79018 24435 ft 420 kts 209°
2026-05-06 14:58 37.10948 -3.80616 23941 ft 418 kts 209°
2026-05-06 14:58 37.08313 -3.82249 23435 ft 416 kts 209°
2026-05-06 14:59 37.05729 -3.83850 22954 ft 413 kts 209°
2026-05-06 14:59 37.04025 -3.84903 22630 ft 411 kts 209°
2026-05-06 14:59 37.00639 -3.86992 22001 ft 408 kts 209°
2026-05-06 14:59 36.98098 -3.88558 21512 ft 406 kts 209°
2026-05-06 15:00 36.95569 -3.90121 21036 ft 403 kts 209°
2026-05-06 15:00 36.93065 -3.91668 20569 ft 401 kts 209°
2026-05-06 15:00 36.91407 -3.92692 20255 ft 401 kts 209°
2026-05-06 15:00 36.88917 -3.94224 19782 ft 397 kts 208°
2026-05-06 15:01 36.86443 -3.95739 19315 ft 395 kts 208°
2026-05-06 15:01 36.84001 -3.97232 19002 ft 384 kts 208°
2026-05-06 15:01 36.81648 -3.98665 18872 ft 369 kts 208°
2026-05-06 15:01 36.79386 -4.00044 18744 ft 354 kts 208°
2026-05-06 15:02 36.77214 -4.01370 18617 ft 341 kts 208°
2026-05-06 15:02 36.75125 -4.02648 18493 ft 328 kts 209°
2026-05-06 15:02 36.73273 -4.04176 18335 ft 314 kts 225°
2026-05-06 15:02 36.71935 -4.06255 18165 ft 303 kts 241°
2026-05-06 15:03 36.71154 -4.08693 17852 ft 304 kts 257°
2026-05-06 15:03 36.70970 -4.11317 17489 ft 304 kts 268°
2026-05-06 15:03 36.70968 -4.13954 17145 ft 304 kts 268°
2026-05-06 15:03 36.71164 -4.16569 16795 ft 305 kts 280°
2026-05-06 15:04 36.71866 -4.19065 16458 ft 306 kts 294°
2026-05-06 15:04 36.73004 -4.21316 16125 ft 308 kts 302°
2026-05-06 15:04 36.74231 -4.23508 15789 ft 307 kts 302°
2026-05-06 15:04 36.75447 -4.25694 15453 ft 306 kts 302°
2026-05-06 15:05 36.76656 -4.27877 15110 ft 305 kts 302°
2026-05-06 15:05 36.77845 -4.30028 14792 ft 304 kts 302°
2026-05-06 15:05 36.79043 -4.32198 14461 ft 303 kts 302°
2026-05-06 15:05 36.80233 -4.34354 14134 ft 301 kts 302°
2026-05-06 15:06 36.81423 -4.36502 13860 ft 298 kts 302°
2026-05-06 15:06 36.82590 -4.38601 13734 ft 289 kts 301°
2026-05-06 15:06 36.83517 -4.40768 13592 ft 279 kts 287°
2026-05-06 15:06 36.83945 -4.43088 13396 ft 272 kts 273°
2026-05-06 15:07 36.83964 -4.45436 13136 ft 270 kts 268°
2026-05-06 15:07 36.83944 -4.47776 12896 ft 270 kts 268°
2026-05-06 15:07 36.83930 -4.50118 12684 ft 269 kts 268°
2026-05-06 15:07 36.83917 -4.52457 12425 ft 268 kts 268°
2026-05-06 15:08 36.83908 -4.54759 12178 ft 268 kts 270°
2026-05-06 15:08 36.84210 -4.57051 12006 ft 264 kts 288°
2026-05-06 15:08 36.85050 -4.59070 11728 ft 268 kts 306°
2026-05-06 15:08 36.86314 -4.60766 11459 ft 268 kts 313°
2026-05-06 15:09 36.87623 -4.62409 11232 ft 265 kts 313°
2026-05-06 15:09 36.88926 -4.64049 10930 ft 265 kts 313°
2026-05-06 15:09 36.90223 -4.65684 10649 ft 265 kts 313°
2026-05-06 15:09 36.91516 -4.67312 10376 ft 264 kts 314°
2026-05-06 15:10 36.92977 -4.68691 10127 ft 264 kts 331°
2026-05-06 15:10 36.94692 -4.69441 9972 ft 259 kts 349°
2026-05-06 15:10 36.96503 -4.69576 9876 ft 263 kts 358°
2026-05-06 15:10 36.98325 -4.69594 9657 ft 260 kts 359°
2026-05-06 15:11 37.00109 -4.69612 9510 ft 250 kts 358°
2026-05-06 15:11 37.01811 -4.69626 9214 ft 241 kts 358°
2026-05-06 15:11 37.03476 -4.69642 8827 ft 238 kts 358°
2026-05-06 15:11 37.05125 -4.69662 8401 ft 236 kts 358°
2026-05-06 15:12 37.06760 -4.69680 7979 ft 234 kts 358°
2026-05-06 15:12 37.08379 -4.69697 7518 ft 232 kts 358°
2026-05-06 15:12 37.09987 -4.69718 7090 ft 229 kts 357°
2026-05-06 15:12 37.11503 -4.70159 6978 ft 226 kts 331°
2026-05-06 15:13 37.12713 -4.71404 6981 ft 227 kts 304°
2026-05-06 15:13 37.13310 -4.73215 6982 ft 227 kts 276°
2026-05-06 15:13 37.13159 -4.75160 6984 ft 226 kts 249°
2026-05-06 15:13 37.12319 -4.76784 6982 ft 228 kts 222°
2026-05-06 15:14 37.10965 -4.77787 6984 ft 229 kts 202°
2026-05-06 15:14 37.09494 -4.78553 6977 ft 229 kts 203°
2026-05-06 15:14 37.08018 -4.79322 6983 ft 230 kts 203°
2026-05-06 15:14 37.06508 -4.79963 6982 ft 230 kts 190°
2026-05-06 15:15 37.04911 -4.80071 6984 ft 231 kts 180°
2026-05-06 15:15 37.03305 -4.80047 6982 ft 231 kts 180°
2026-05-06 15:15 37.01700 -4.80029 6986 ft 231 kts 180°
2026-05-06 15:15 37.00092 -4.80014 6984 ft 231 kts 180°
2026-05-06 15:16 36.98483 -4.79998 6896 ft 230 kts 180°
2026-05-06 15:16 36.96881 -4.79982 6768 ft 229 kts 180°
2026-05-06 15:16 36.95287 -4.79965 6647 ft 229 kts 180°
2026-05-06 15:16 36.93691 -4.79929 6518 ft 229 kts 175°
2026-05-06 15:17 36.92165 -4.79500 6391 ft 229 kts 161°
2026-05-06 15:17 36.90662 -4.78841 6265 ft 229 kts 161°
2026-05-06 15:17 36.89162 -4.78187 6116 ft 228 kts 161°
2026-05-06 15:17 36.87657 -4.77530 5873 ft 231 kts 161°
2026-05-06 15:18 36.86188 -4.76726 5549 ft 232 kts 152°
2026-05-06 15:18 36.84770 -4.75763 5230 ft 232 kts 152°
2026-05-06 15:18 36.83379 -4.74823 5000 ft 221 kts 152°
2026-05-06 15:18 36.82098 -4.73957 4995 ft 196 kts 152°
2026-05-06 15:19 36.80960 -4.73190 4989 ft 181 kts 152°
2026-05-06 15:19 36.79869 -4.72457 5002 ft 178 kts 152°
2026-05-06 15:19 36.78777 -4.71721 4989 ft 178 kts 153°
2026-05-06 15:19 36.77745 -4.70877 4984 ft 179 kts 138°
2026-05-06 15:20 36.77001 -4.69637 4984 ft 179 kts 118°
2026-05-06 15:20 36.76434 -4.68276 4833 ft 174 kts 118°
2026-05-06 15:20 36.75875 -4.66938 4329 ft 175 kts 118°
2026-05-06 15:20 36.75315 -4.65598 3839 ft 174 kts 118°
2026-05-06 15:21 36.74781 -4.64321 3661 ft 157 kts 118°
2026-05-06 15:21 36.74293 -4.63154 3371 ft 149 kts 118°
2026-05-06 15:21 36.73816 -4.62013 3008 ft 148 kts 118°
2026-05-06 15:21 36.73341 -4.60880 2649 ft 147 kts 118°
2026-05-06 15:22 36.72874 -4.59765 2499 ft 144 kts 118°
2026-05-06 15:22 36.72407 -4.58651 2496 ft 146 kts 119°
2026-05-06 15:22 36.71936 -4.57528 2490 ft 146 kts 119°
2026-05-06 15:22 36.71475 -4.56428 2271 ft 142 kts 119°
2026-05-06 15:23 36.71015 -4.55332 1936 ft 142 kts 119°
2026-05-06 15:23 36.70552 -4.54232 1433 ft 150 kts 119°
2026-05-06 15:23 36.70075 -4.53057 898 ft 151 kts 118°
2026-05-06 15:23 36.69596 -4.51907 414 ft 150 kts 119°
2026-05-06 15:24 36.69116 -4.50793 100 ft 142 kts 118°
2026-05-06 15:24 36.68675 -4.49763 51 ft 123 kts 116°
2026-05-06 15:24 36.68409 -4.49127 44 ft 45 kts 124°
2026-05-06 15:24 36.68277 -4.48937 43 ft 11 kts 142°
2026-05-06 15:25 36.68204 -4.48875 39 ft 12 kts 149°
2026-05-06 15:25 36.68169 -4.48851 39 ft 1 kts 152°
2026-05-06 15:25 36.68150 -4.48839 39 ft 5 kts 156°
2026-05-06 15:25 36.68120 -4.48843 40 ft 5 kts 227°
2026-05-06 15:26 36.68132 -4.48909 40 ft 13 kts 296°
2026-05-06 15:26 36.68179 -4.49024 40 ft 16 kts 297°
2026-05-06 15:26 36.68235 -4.49158 40 ft 19 kts 297°
2026-05-06 15:26 36.68275 -4.49299 40 ft 16 kts 253°
2026-05-06 15:27 36.68194 -4.49413 42 ft 19 kts 221°
2026-05-06 15:27 36.68113 -4.49501 42 ft 11 kts 221°
2026-05-06 15:27 36.68057 -4.49560 42 ft 10 kts 209°
2026-05-06 15:27 36.67992 -4.49523 42 ft 12 kts 134°
2026-05-06 15:28 36.67955 -4.49473 42 ft 1 kts 131°
2026-05-06 15:28 36.67939 -4.49463 42 ft 4 kts 171°
2026-05-06 15:28 36.67911 -4.49479 41 ft 2 kts 211°
2026-05-06 15:28 36.67893 -4.49494 42 ft 4 kts 214°
2026-05-06 15:29 36.67888 -4.49498 42 ft 0 kts 214°